Time,TemperatureF,DewpointF,PressureIn,WindDirection,WindDirectionDegrees,WindSpeedMPH,WindSpeedGustMPH,Humidity,HourlyPrecipIn,Conditions,Clouds,dailyrainin,SoftwareType,DateUTC
2013-12-20 00:01:00,44.0,38.5,30.12,SSE,164,0.0,1.0,81,0.00,,,0.00,Wunderground v.1.15,2013-12-20 05:01:00,
2013-12-20 00:02:00,44.0,38.5,30.12,SSE,164,0.0,1.0,81,0.00,,,0.00,Wunderground v.1.15,2013-12-20 05:02:00,
2013-12-20 00:03:00,44.0,38.5,30.12,SSE,164,0.0,1.0,81,0.00,,,0.00,Wunderground v.1.15,2013-12-20 05:03:00,
2013-12-20 00:06:00,44.0,38.5,30.12,SSE,164,0.0,1.0,81,0.00,,,0.00,Wunderground v.1.15,2013-12-20 05:06:00,
2013-12-20 00:10:00,44.0,38.5,30.12,SSE,164,0.0,2.0,81,0.00,,,0.00,Wunderground v.1.15,2013-12-20 05:10:00,
2013-12-20 00:13:00,44.0,38.9,30.11,SSE,163,1.0,2.0,82,0.00,,,0.00,Wunderground v.1.15,2013-12-20 05:13:00,
2013-12-20 00:18:00,44.0,38.9,30.11,South,175,2.0,4.0,82,0.00,,,0.00,Wunderground v.1.15,2013-12-20 05:18:00,
2013-12-20 00:24:00,44.1,39.0,30.11,South,171,2.0,4.0,82,0.00,,,0.00,Wunderground v.1.15,2013-12-20 05:24:00,
2013-12-20 00:29:00,44.1,39.0,30.11,South,169,2.0,4.0,82,0.00,,,0.00,Wunderground v.1.15,2013-12-20 05:29:00,
2013-12-20 00:35:00,44.1,39.0,30.11,SSE,167,2.0,2.0,82,0.00,,,0.00,Wunderground v.1.15,2013-12-20 05:35:00,
2013-12-20 00:40:00,44.0,38.9,30.10,SSE,167,1.0,1.0,82,0.00,,,0.00,Wunderground v.1.15,2013-12-20 05:40:00,
2013-12-20 00:46:00,43.9,38.8,30.10,SSE,167,0.0,1.0,82,0.00,,,0.00,Wunderground v.1.15,2013-12-20 05:46:00,
2013-12-20 00:47:00,43.9,38.8,30.10,SSE,167,0.0,1.0,82,0.00,,,0.00,Wunderground v.1.15,2013-12-20 05:47:00,
2013-12-20 00:53:00,43.8,38.7,30.10,SSE,167,0.0,0.0,82,0.00,,,0.00,Wunderground v.1.15,2013-12-20 05:53:00,
2013-12-20 00:58:00,43.6,38.8,30.10,SSE,167,0.0,0.0,83,0.00,,,0.00,Wunderground v.1.15,2013-12-20 05:58:00,
2013-12-20 01:04:00,43.5,38.7,30.11,SSE,167,0.0,0.0,83,0.00,,,0.00,Wunderground v.1.15,2013-12-20 06:04:00,
2013-12-20 01:09:00,43.3,38.5,30.11,SSE,167,0.0,0.0,83,0.00,,,0.00,Wunderground v.1.15,2013-12-20 06:09:00,
2013-12-20 01:15:00,43.0,38.2,30.11,SSE,167,0.0,0.0,83,0.00,,,0.00,Wunderground v.1.15,2013-12-20 06:15:00,
2013-12-20 01:21:00,42.6,37.8,30.11,SSE,167,0.0,1.0,83,0.00,,,0.00,Wunderground v.1.15,2013-12-20 06:21:00,
2013-12-20 01:26:00,42.4,37.9,30.11,SSE,168,0.0,4.0,84,0.00,,,0.00,Wunderground v.1.15,2013-12-20 06:26:00,
2013-12-20 01:32:00,42.1,37.6,30.11,SSE,168,0.0,0.0,84,0.00,,,0.00,Wunderground v.1.15,2013-12-20 06:32:00,
2013-12-20 01:37:00,41.8,37.3,30.11,SSE,168,0.0,2.0,84,0.00,,,0.00,Wunderground v.1.15,2013-12-20 06:37:00,
2013-12-20 01:43:00,41.6,37.1,30.11,SSE,168,0.0,0.0,84,0.00,,,0.00,Wunderground v.1.15,2013-12-20 06:43:00,
2013-12-20 01:48:00,41.4,36.9,30.10,South,169,0.0,2.0,84,0.00,,,0.00,Wunderground v.1.15,2013-12-20 06:48:00,
2013-12-20 01:54:00,41.5,37.3,30.10,South,169,1.0,2.0,85,0.00,,,0.00,Wunderground v.1.15,2013-12-20 06:54:00,
2013-12-20 01:59:00,41.8,37.6,30.10,South,175,2.0,2.0,85,0.00,,,0.00,Wunderground v.1.15,2013-12-20 06:59:00,
2013-12-20 02:04:00,42.1,37.6,30.11,South,175,2.0,2.0,84,0.00,,,0.00,Wunderground v.1.15,2013-12-20 07:04:00,
2013-12-20 02:10:00,42.4,37.9,30.11,South,174,1.0,2.0,84,0.00,,,0.00,Wunderground v.1.15,2013-12-20 07:10:00,
2013-12-20 02:16:00,42.7,38.2,30.11,South,173,1.0,2.0,84,0.00,,,0.00,Wunderground v.1.15,2013-12-20 07:16:00,
2013-12-20 02:21:00,42.9,38.4,30.11,South,173,0.0,1.0,84,0.00,,,0.00,Wunderground v.1.15,2013-12-20 07:21:00,
2013-12-20 02:27:00,43.0,38.8,30.11,South,171,1.0,4.0,85,0.00,,,0.00,Wunderground v.1.15,2013-12-20 07:27:00,
2013-12-20 02:32:00,43.1,38.9,30.11,South,171,2.0,4.0,85,0.00,,,0.00,Wunderground v.1.15,2013-12-20 07:32:00,
2013-12-20 02:38:00,43.1,38.9,30.12,South,180,3.0,5.0,85,0.00,,,0.00,Wunderground v.1.15,2013-12-20 07:38:00,
2013-12-20 02:43:00,43.2,39.0,30.12,SSE,168,3.0,4.0,85,0.00,,,0.00,Wunderground v.1.15,2013-12-20 07:43:00,
2013-12-20 02:49:00,43.3,38.8,30.11,SSE,167,2.0,4.0,84,0.00,,,0.00,Wunderground v.1.15,2013-12-20 07:49:00,
2013-12-20 02:54:00,43.5,39.0,30.11,SSE,167,2.0,2.0,84,0.00,,,0.00,Wunderground v.1.15,2013-12-20 07:54:00,
2013-12-20 03:00:00,43.5,39.0,30.11,SSE,168,2.0,2.0,84,0.00,,,0.00,Wunderground v.1.15,2013-12-20 08:00:00,
2013-12-20 03:05:00,43.6,38.8,30.11,South,170,2.0,4.0,83,0.00,,,0.00,Wunderground v.1.15,2013-12-20 08:05:00,
2013-12-20 03:11:00,43.8,39.0,30.11,South,180,3.0,3.0,83,0.00,,,0.00,Wunderground v.1.15,2013-12-20 08:11:00,
2013-12-20 03:17:00,43.8,39.0,30.11,South,170,3.0,5.0,83,0.00,,,0.00,Wunderground v.1.15,2013-12-20 08:17:00,
2013-12-20 03:22:00,44.1,39.3,30.10,SSE,167,4.0,7.0,83,0.00,,,0.00,Wunderground v.1.15,2013-12-20 08:22:00,
2013-12-20 03:28:00,44.4,39.6,30.10,SSE,165,5.0,7.0,83,0.00,,,0.00,Wunderground v.1.15,2013-12-20 08:28:00,
2013-12-20 03:33:00,44.4,39.9,30.10,South,187,5.0,6.0,84,0.00,,,0.00,Wunderground v.1.15,2013-12-20 08:33:00,
2013-12-20 03:39:00,44.4,39.9,30.11,SSE,159,5.0,6.0,84,0.00,,,0.00,Wunderground v.1.15,2013-12-20 08:39:00,
2013-12-20 03:45:00,44.3,40.1,30.11,SSE,165,5.0,5.0,85,0.00,,,0.00,Wunderground v.1.15,2013-12-20 08:45:00,
2013-12-20 03:51:00,44.2,40.0,30.10,South,172,4.0,5.0,85,0.00,,,0.00,Wunderground v.1.15,2013-12-20 08:51:00,
2013-12-20 03:57:00,44.1,39.9,30.10,South,178,5.0,9.0,85,0.00,,,0.00,Wunderground v.1.15,2013-12-20 08:57:00,
2013-12-20 04:02:00,44.2,40.0,30.10,South,182,5.0,5.0,85,0.00,,,0.00,Wunderground v.1.15,2013-12-20 09:02:00,
2013-12-20 04:08:00,44.4,39.9,30.10,South,173,5.0,6.0,84,0.00,,,0.00,Wunderground v.1.15,2013-12-20 09:08:00,
2013-12-20 04:13:00,44.6,40.1,30.10,South,186,6.0,7.0,84,0.00,,,0.00,Wunderground v.1.15,2013-12-20 09:13:00,
2013-12-20 04:19:00,44.7,39.9,30.10,SSW,213,5.0,7.0,83,0.00,,,0.00,Wunderground v.1.15,2013-12-20 09:19:00,
2013-12-20 04:25:00,44.9,39.7,30.10,SSW,194,6.0,9.0,82,0.00,,,0.00,Wunderground v.1.15,2013-12-20 09:25:00,
2013-12-20 04:30:00,45.3,39.5,30.10,South,172,7.0,7.0,80,0.00,,,0.00,Wunderground v.1.15,2013-12-20 09:30:00,
2013-12-20 04:36:00,45.6,39.5,30.10,South,191,7.0,10.0,79,0.00,,,0.00,Wunderground v.1.15,2013-12-20 09:36:00,
2013-12-20 04:41:00,45.7,39.6,30.10,SSW,193,7.0,10.0,79,0.00,,,0.00,Wunderground v.1.15,2013-12-20 09:41:00,
2013-12-20 04:47:00,45.7,39.6,30.10,South,178,7.0,10.0,79,0.00,,,0.00,Wunderground v.1.15,2013-12-20 09:47:00,
2013-12-20 04:52:00,45.7,39.6,30.10,South,184,7.0,10.0,79,0.00,,,0.00,Wunderground v.1.15,2013-12-20 09:52:00,
2013-12-20 04:58:00,45.7,39.6,30.10,SSW,200,7.0,10.0,79,0.00,,,0.00,Wunderground v.1.15,2013-12-20 09:58:00,
2013-12-20 05:04:00,45.7,39.2,30.10,SSW,209,6.0,7.0,78,0.00,,,0.00,Wunderground v.1.15,2013-12-20 10:04:00,
2013-12-20 05:09:00,45.6,39.1,30.10,SSW,209,5.0,8.0,78,0.00,,,0.00,Wunderground v.1.15,2013-12-20 10:09:00,
2013-12-20 05:15:00,45.5,39.0,30.10,SW,215,6.0,9.0,78,0.00,,,0.00,Wunderground v.1.15,2013-12-20 10:15:00,
2013-12-20 05:20:00,45.4,38.9,30.10,SSE,157,6.0,6.0,78,0.00,,,0.00,Wunderground v.1.15,2013-12-20 10:20:00,
2013-12-20 05:26:00,45.3,38.8,30.10,SSW,194,5.0,7.0,78,0.00,,,0.00,Wunderground v.1.15,2013-12-20 10:26:00,
2013-12-20 05:31:00,45.2,38.7,30.10,SSW,198,5.0,5.0,78,0.00,,,0.00,Wunderground v.1.15,2013-12-20 10:31:00,
2013-12-20 05:37:00,45.2,38.4,30.11,SSE,167,5.0,8.0,77,0.00,,,0.00,Wunderground v.1.15,2013-12-20 10:37:00,
2013-12-20 05:42:00,45.2,38.7,30.11,South,188,5.0,5.0,78,0.00,,,0.00,Wunderground v.1.15,2013-12-20 10:42:00,
2013-12-20 05:48:00,45.1,39.0,30.11,SSE,168,5.0,6.0,79,0.00,,,0.00,Wunderground v.1.15,2013-12-20 10:48:00,
2013-12-20 05:54:00,44.8,39.0,30.10,South,169,5.0,6.0,80,0.00,,,0.00,Wunderground v.1.15,2013-12-20 10:54:00,
2013-12-20 05:59:00,44.6,39.4,30.10,SSE,151,6.0,6.0,82,0.00,,,0.00,Wunderground v.1.15,2013-12-20 10:59:00,
2013-12-20 06:05:00,44.4,39.2,30.10,South,184,6.0,8.0,82,0.00,,,0.00,Wunderground v.1.15,2013-12-20 11:05:00,
2013-12-20 06:10:00,44.3,39.5,30.10,South,191,6.0,7.0,83,0.00,,,0.00,Wunderground v.1.15,2013-12-20 11:10:00,
2013-12-20 06:16:00,44.3,39.5,30.11,South,184,7.0,10.0,83,0.00,,,0.00,Wunderground v.1.15,2013-12-20 11:16:00,
2013-12-20 06:22:00,44.3,39.5,30.11,SSE,168,6.0,7.0,83,0.00,,,0.00,Wunderground v.1.15,2013-12-20 11:22:00,
2013-12-20 06:27:00,44.3,39.5,30.11,South,183,6.0,7.0,83,0.00,,,0.00,Wunderground v.1.15,2013-12-20 11:27:00,
2013-12-20 06:33:00,44.3,39.5,30.10,SSW,196,6.0,9.0,83,0.00,,,0.00,Wunderground v.1.15,2013-12-20 11:33:00,
2013-12-20 06:38:00,44.3,39.5,30.10,South,175,6.0,10.0,83,0.00,,,0.00,Wunderground v.1.15,2013-12-20 11:38:00,
2013-12-20 06:44:00,44.1,39.6,30.10,SSE,152,5.0,6.0,84,0.00,,,0.00,Wunderground v.1.15,2013-12-20 11:44:00,
2013-12-20 06:49:00,43.9,39.4,30.10,SSW,193,5.0,7.0,84,0.00,,,0.00,Wunderground v.1.15,2013-12-20 11:49:00,
2013-12-20 06:55:00,43.8,39.6,30.10,South,179,5.0,7.0,85,0.00,,,0.00,Wunderground v.1.15,2013-12-20 11:55:00,
2013-12-20 07:01:00,43.7,39.5,30.10,SSW,200,5.0,5.0,85,0.00,,,0.00,Wunderground v.1.15,2013-12-20 12:01:00,
2013-12-20 07:06:00,43.6,39.7,30.10,SSE,164,5.0,7.0,86,0.00,,,0.00,Wunderground v.1.15,2013-12-20 12:06:00,
2013-12-20 07:12:00,43.7,39.8,30.10,SSE,167,5.0,6.0,86,0.00,,,0.00,Wunderground v.1.15,2013-12-20 12:12:00,
2013-12-20 07:17:00,43.7,39.8,30.11,South,184,5.0,8.0,86,0.00,,,0.00,Wunderground v.1.15,2013-12-20 12:17:00,
2013-12-20 07:23:00,43.7,39.8,30.11,South,172,5.0,7.0,86,0.00,,,0.00,Wunderground v.1.15,2013-12-20 12:23:00,
2013-12-20 07:28:00,43.8,39.9,30.10,South,178,5.0,8.0,86,0.00,,,0.00,Wunderground v.1.15,2013-12-20 12:28:00,
2013-12-20 07:34:00,44.1,39.9,30.10,South,173,5.0,6.0,85,0.00,,,0.00,Wunderground v.1.15,2013-12-20 12:34:00,
2013-12-20 07:39:00,44.2,40.0,30.10,SSE,151,5.0,7.0,85,0.00,,,0.00,Wunderground v.1.15,2013-12-20 12:39:00,
2013-12-20 07:45:00,44.5,40.0,30.10,SSW,200,6.0,11.0,84,0.00,,,0.00,Wunderground v.1.15,2013-12-20 12:45:00,
2013-12-20 07:51:00,44.6,40.1,30.10,South,177,5.0,6.0,84,0.00,,,0.00,Wunderground v.1.15,2013-12-20 12:51:00,
2013-12-20 07:56:00,44.6,40.1,30.10,SW,231,5.0,7.0,84,0.00,,,0.00,Wunderground v.1.15,2013-12-20 12:56:00,
2013-12-20 08:01:00,44.7,40.2,30.11,SSW,193,5.0,12.0,84,0.00,,,0.00,Wunderground v.1.15,2013-12-20 13:01:00,
2013-12-20 08:07:00,45.0,40.1,30.11,SSE,165,7.0,12.0,83,0.00,,,0.00,Wunderground v.1.15,2013-12-20 13:07:00,
2013-12-20 08:13:00,45.1,40.2,30.11,SSW,203,6.0,8.0,83,0.00,,,0.00,Wunderground v.1.15,2013-12-20 13:13:00,
2013-12-20 08:18:00,45.2,40.0,30.11,SSW,204,6.0,8.0,82,0.00,,,0.00,Wunderground v.1.15,2013-12-20 13:18:00,
2013-12-20 08:24:00,45.3,40.1,30.11,SW,216,6.0,9.0,82,0.00,,,0.00,Wunderground v.1.15,2013-12-20 13:24:00,
2013-12-20 08:30:00,45.4,40.2,30.11,SSW,207,7.0,7.0,82,0.00,,,0.00,Wunderground v.1.15,2013-12-20 13:30:00,
2013-12-20 08:35:00,45.5,40.0,30.11,SSW,202,7.0,8.0,81,0.00,,,0.00,Wunderground v.1.15,2013-12-20 13:35:00,
2013-12-20 08:41:00,45.8,40.3,30.11,SSW,200,6.0,6.0,81,0.00,,,0.00,Wunderground v.1.15,2013-12-20 13:41:00,
2013-12-20 08:46:00,45.9,40.1,30.11,SSW,198,6.0,8.0,80,0.00,,,0.00,Wunderground v.1.15,2013-12-20 13:46:00,
2013-12-20 08:52:00,46.0,40.2,30.11,South,178,6.0,8.0,80,0.00,,,0.00,Wunderground v.1.15,2013-12-20 13:52:00,
2013-12-20 08:57:00,46.1,40.3,30.11,SSW,197,6.0,8.0,80,0.00,,,0.00,Wunderground v.1.15,2013-12-20 13:57:00,
2013-12-20 09:03:00,46.4,40.2,30.11,SSE,165,7.0,7.0,79,0.00,,,0.00,Wunderground v.1.15,2013-12-20 14:03:00,
2013-12-20 09:08:00,46.5,40.3,30.11,SSE,161,6.0,8.0,79,0.00,,,0.00,Wunderground v.1.15,2013-12-20 14:08:00,
2013-12-20 09:14:00,46.8,40.6,30.11,SSE,159,5.0,6.0,79,0.00,,,0.00,Wunderground v.1.15,2013-12-20 14:14:00,
2013-12-20 09:20:00,47.0,40.5,30.11,South,173,6.0,9.0,78,0.00,,,0.00,Wunderground v.1.15,2013-12-20 14:20:00,
2013-12-20 09:25:00,47.2,40.4,30.11,SSW,194,6.0,11.0,77,0.00,,,0.00,Wunderground v.1.15,2013-12-20 14:25:00,
2013-12-20 09:31:00,47.3,40.5,30.11,South,180,6.0,10.0,77,0.00,,,0.00,Wunderground v.1.15,2013-12-20 14:31:00,
2013-12-20 09:36:00,47.4,40.2,30.10,South,187,7.0,13.0,76,0.00,,,0.00,Wunderground v.1.15,2013-12-20 14:36:00,
2013-12-20 09:42:00,47.6,40.4,30.10,SSW,209,7.0,9.0,76,0.00,,,0.00,Wunderground v.1.15,2013-12-20 14:42:00,
2013-12-20 09:47:00,47.7,40.2,30.11,SSW,209,7.0,10.0,75,0.00,,,0.00,Wunderground v.1.15,2013-12-20 14:47:00,
2013-12-20 09:53:00,48.0,40.5,30.11,South,170,8.0,10.0,75,0.00,,,0.00,Wunderground v.1.15,2013-12-20 14:53:00,
2013-12-20 09:58:00,48.3,40.4,30.11,South,171,7.0,10.0,74,0.00,,,0.00,Wunderground v.1.15,2013-12-20 14:58:00,
2013-12-20 10:04:00,48.5,40.6,30.11,SSW,198,7.0,7.0,74,0.00,,,0.00,Wunderground v.1.15,2013-12-20 15:04:00,
2013-12-20 10:10:00,48.8,40.5,30.11,SSE,155,6.0,7.0,73,0.00,,,0.00,Wunderground v.1.15,2013-12-20 15:10:00,
2013-12-20 10:15:00,49.1,40.5,30.11,SSW,196,7.0,9.0,72,0.00,,,0.00,Wunderground v.1.15,2013-12-20 15:15:00,
2013-12-20 10:21:00,49.4,40.7,30.11,SSW,211,8.0,8.0,72,0.00,,,0.00,Wunderground v.1.15,2013-12-20 15:21:00,
2013-12-20 10:26:00,49.6,40.6,30.10,South,183,8.0,9.0,71,0.00,,,0.00,Wunderground v.1.15,2013-12-20 15:26:00,
2013-12-20 10:32:00,49.6,40.6,30.10,South,169,7.0,9.0,71,0.00,,,0.00,Wunderground v.1.15,2013-12-20 15:32:00,
2013-12-20 10:37:00,49.3,41.0,30.10,SSW,192,7.0,9.0,73,0.00,,,0.00,Wunderground v.1.15,2013-12-20 15:37:00,
2013-12-20 10:43:00,49.1,41.2,30.10,South,188,7.0,11.0,74,0.00,,,0.00,Wunderground v.1.15,2013-12-20 15:43:00,
2013-12-20 10:48:00,48.8,41.2,30.10,South,171,8.0,13.0,75,0.00,,,0.00,Wunderground v.1.15,2013-12-20 15:48:00,
2013-12-20 10:54:00,48.5,41.3,30.09,South,186,8.0,8.0,76,0.00,,,0.00,Wunderground v.1.15,2013-12-20 15:54:00,
2013-12-20 11:00:00,48.6,41.4,30.09,SSE,168,7.0,7.0,76,0.00,,,0.00,Wunderground v.1.15,2013-12-20 16:00:00,
2013-12-20 11:05:00,48.7,41.5,30.09,ESE,121,7.0,8.0,76,0.00,,,0.00,Wunderground v.1.15,2013-12-20 16:05:00,
2013-12-20 11:11:00,48.6,41.4,30.08,SW,222,7.0,7.0,76,0.00,,,0.00,Wunderground v.1.15,2013-12-20 16:11:00,
2013-12-20 11:16:00,48.5,41.6,30.08,SSW,199,7.0,7.0,77,0.00,,,0.00,Wunderground v.1.15,2013-12-20 16:16:00,
2013-12-20 11:22:00,48.5,42.0,30.08,SSE,155,7.0,10.0,78,0.00,,,0.00,Wunderground v.1.15,2013-12-20 16:22:00,
2013-12-20 11:27:00,48.4,41.9,30.08,South,184,7.0,10.0,78,0.00,,,0.00,Wunderground v.1.15,2013-12-20 16:27:00,
2013-12-20 11:33:00,48.4,41.9,30.08,South,190,7.0,11.0,78,0.00,,,0.00,Wunderground v.1.15,2013-12-20 16:33:00,
2013-12-20 11:38:00,48.4,42.5,30.07,SSW,195,7.0,12.0,80,0.00,,,0.00,Wunderground v.1.15,2013-12-20 16:38:00,
2013-12-20 11:44:00,48.7,42.8,30.07,South,188,7.0,10.0,80,0.00,,,0.00,Wunderground v.1.15,2013-12-20 16:44:00,
2013-12-20 11:50:00,48.8,42.9,30.06,SSW,192,8.0,8.0,80,0.00,,,0.00,Wunderground v.1.15,2013-12-20 16:50:00,
2013-12-20 11:55:00,48.7,43.1,30.06,SSE,163,7.0,11.0,81,0.00,,,0.00,Wunderground v.1.15,2013-12-20 16:55:00,
2013-12-20 12:01:00,48.5,43.3,30.06,South,171,7.0,12.0,82,0.00,,,0.00,Wunderground v.1.15,2013-12-20 17:01:00,
2013-12-20 12:06:00,48.2,44.2,30.06,SSW,196,8.0,12.0,86,0.00,,,0.00,Wunderground v.1.15,2013-12-20 17:06:00,
2013-12-20 12:12:00,48.1,43.2,30.06,SSW,195,8.0,11.0,83,0.00,,,0.00,Wunderground v.1.15,2013-12-20 17:12:00,
2013-12-20 12:17:00,48.0,43.4,30.06,South,170,8.0,11.0,84,0.00,,,0.00,Wunderground v.1.15,2013-12-20 17:17:00,
2013-12-20 12:23:00,47.8,43.2,30.05,South,178,8.0,11.0,84,0.00,,,0.00,Wunderground v.1.15,2013-12-20 17:23:00,
2013-12-20 12:28:00,47.8,43.5,30.05,SE,137,8.0,11.0,85,0.00,,,0.00,Wunderground v.1.15,2013-12-20 17:28:00,
2013-12-20 12:34:00,47.6,43.3,30.04,South,169,8.0,9.0,85,0.00,,,0.00,Wunderground v.1.15,2013-12-20 17:34:00,
2013-12-20 12:39:00,47.5,43.5,30.04,SSW,195,7.0,9.0,86,0.00,,,0.00,Wunderground v.1.15,2013-12-20 17:39:00,
2013-12-20 12:45:00,47.6,43.6,30.04,SSE,166,6.0,11.0,86,0.00,,,0.00,Wunderground v.1.15,2013-12-20 17:45:00,
2013-12-20 12:51:00,47.9,43.9,30.05,SSE,164,6.0,9.0,86,0.00,,,0.00,Wunderground v.1.15,2013-12-20 17:51:00,
2013-12-20 12:56:00,48.2,43.9,30.05,SSE,159,6.0,9.0,85,0.00,,,0.00,Wunderground v.1.15,2013-12-20 17:56:00,
2013-12-20 13:01:00,48.4,44.1,30.05,SSW,196,6.0,10.0,85,0.00,,,0.00,Wunderground v.1.15,2013-12-20 18:01:00,
2013-12-20 13:06:00,48.6,44.0,30.04,South,180,6.0,11.0,84,0.00,,,0.00,Wunderground v.1.15,2013-12-20 18:06:00,
2013-12-20 13:12:00,48.6,44.0,30.04,SSE,150,6.0,8.0,84,0.00,,,0.00,Wunderground v.1.15,2013-12-20 18:12:00,
2013-12-20 13:17:00,48.3,44.0,30.04,SE,140,7.0,8.0,85,0.00,,,0.00,Wunderground v.1.15,2013-12-20 18:17:00,
2013-12-20 13:23:00,48.2,43.9,30.04,SSW,211,7.0,7.0,85,0.00,,,0.00,Wunderground v.1.15,2013-12-20 18:23:00,
2013-12-20 13:28:00,48.2,43.9,30.03,South,191,6.0,8.0,85,0.00,,,0.00,Wunderground v.1.15,2013-12-20 18:28:00,
2013-12-20 13:34:00,48.1,44.1,30.03,SSW,194,6.0,9.0,86,0.00,,,0.00,Wunderground v.1.15,2013-12-20 18:34:00,
2013-12-20 13:40:00,48.1,44.1,30.03,SSE,164,7.0,8.0,86,0.00,,,0.00,Wunderground v.1.15,2013-12-20 18:40:00,
2013-12-20 13:45:00,48.2,44.2,30.02,SSW,209,6.0,9.0,86,0.00,,,0.00,Wunderground v.1.15,2013-12-20 18:45:00,
2013-12-20 13:51:00,48.2,44.2,30.03,South,178,6.0,7.0,86,0.00,,,0.00,Wunderground v.1.15,2013-12-20 18:51:00,
2013-12-20 13:56:00,48.1,44.1,30.03,South,180,6.0,7.0,86,0.00,,,0.00,Wunderground v.1.15,2013-12-20 18:56:00,
2013-12-20 14:01:00,48.1,44.1,30.03,SE,146,6.0,6.0,86,0.00,,,0.00,Wunderground v.1.15,2013-12-20 19:01:00,
2013-12-20 14:06:00,48.1,44.1,30.02,South,169,6.0,8.0,86,0.00,,,0.00,Wunderground v.1.15,2013-12-20 19:06:00,
2013-12-20 14:12:00,48.0,44.0,30.02,South,171,6.0,7.0,86,0.00,,,0.00,Wunderground v.1.15,2013-12-20 19:12:00,
2013-12-20 14:18:00,48.1,44.1,30.02,SSW,194,5.0,7.0,86,0.00,,,0.00,Wunderground v.1.15,2013-12-20 19:18:00,
2013-12-20 14:24:00,48.4,44.4,30.02,South,172,4.0,6.0,86,0.00,,,0.00,Wunderground v.1.15,2013-12-20 19:24:00,
2013-12-20 14:30:00,48.8,44.8,30.02,SSE,165,4.0,4.0,86,0.00,,,0.00,Wunderground v.1.15,2013-12-20 19:30:00,
2013-12-20 14:33:00,49.0,44.7,30.02,SSE,166,3.0,4.0,85,0.00,,,0.00,Wunderground v.1.15,2013-12-20 19:33:00,
2013-12-20 14:39:00,49.2,44.6,30.02,SSW,197,4.0,7.0,84,0.00,,,0.00,Wunderground v.1.15,2013-12-20 19:39:00,
2013-12-20 14:44:00,48.9,44.3,30.01,SSW,196,5.0,6.0,84,0.00,,,0.00,Wunderground v.1.15,2013-12-20 19:44:00,
2013-12-20 14:50:00,48.7,44.4,30.02,South,171,5.0,5.0,85,0.00,,,0.00,Wunderground v.1.15,2013-12-20 19:50:00,
2013-12-20 14:55:00,48.7,44.4,30.02,SSE,150,4.0,5.0,85,0.00,,,0.00,Wunderground v.1.15,2013-12-20 19:55:00,
2013-12-20 15:01:00,48.8,44.8,30.02,South,173,3.0,5.0,86,0.00,,,0.00,Wunderground v.1.15,2013-12-20 20:01:00,
2013-12-20 15:07:00,48.8,44.5,30.02,South,176,3.0,5.0,85,0.00,,,0.00,Wunderground v.1.15,2013-12-20 20:07:00,
2013-12-20 15:13:00,49.0,44.7,30.02,SSE,159,3.0,5.0,85,0.00,,,0.00,Wunderground v.1.15,2013-12-20 20:13:00,
2013-12-20 15:19:00,49.3,45.0,30.02,SSE,167,4.0,6.0,85,0.00,,,0.00,Wunderground v.1.15,2013-12-20 20:19:00,
2013-12-20 15:24:00,49.6,45.3,30.03,South,190,6.0,7.0,85,0.00,,,0.00,Wunderground v.1.15,2013-12-20 20:24:00,
2013-12-20 15:30:00,50.0,45.7,30.02,SSW,202,5.0,6.0,85,0.00,,,0.00,Wunderground v.1.15,2013-12-20 20:30:00,
2013-12-20 15:35:00,50.4,45.7,30.02,SSW,196,4.0,7.0,84,0.00,,,0.00,Wunderground v.1.15,2013-12-20 20:35:00,
2013-12-20 15:41:00,50.9,45.9,30.02,South,191,5.0,5.0,83,0.00,,,0.00,Wunderground v.1.15,2013-12-20 20:41:00,
2013-12-20 15:46:00,51.2,45.9,30.02,South,174,4.0,5.0,82,0.00,,,0.00,Wunderground v.1.15,2013-12-20 20:46:00,
2013-12-20 15:52:00,51.3,46.0,30.02,SSE,163,4.0,4.0,82,0.00,,,0.00,Wunderground v.1.15,2013-12-20 20:52:00,
2013-12-20 15:57:00,50.8,45.2,30.02,SSW,204,4.0,6.0,81,0.00,,,0.00,Wunderground v.1.15,2013-12-20 20:57:00,
2013-12-20 16:03:00,50.0,44.7,30.02,SW,215,5.0,9.0,82,0.00,,,0.00,Wunderground v.1.15,2013-12-20 21:03:00,
2013-12-20 16:09:00,48.9,44.3,30.02,South,170,6.0,9.0,84,0.00,,,0.00,Wunderground v.1.15,2013-12-20 21:09:00,
2013-12-20 16:14:00,48.1,43.8,30.02,SSE,160,6.0,8.0,85,0.00,,,0.00,Wunderground v.1.15,2013-12-20 21:14:00,
2013-12-20 16:20:00,47.5,43.8,30.02,SSW,199,7.0,8.0,87,0.00,,,0.00,Wunderground v.1.15,2013-12-20 21:20:00,
2013-12-20 16:25:00,47.2,43.8,30.03,South,173,7.0,12.0,88,0.00,,,0.00,Wunderground v.1.15,2013-12-20 21:25:00,
2013-12-20 16:31:00,47.2,44.4,30.02,SSW,202,7.0,8.0,90,0.00,,,0.00,Wunderground v.1.15,2013-12-20 21:31:00,
2013-12-20 16:36:00,47.1,44.3,30.02,SSE,153,8.0,11.0,90,0.00,,,0.00,Wunderground v.1.15,2013-12-20 21:36:00,
2013-12-20 16:42:00,47.0,44.2,30.03,SSE,165,8.0,8.0,90,0.00,,,0.00,Wunderground v.1.15,2013-12-20 21:42:00,
2013-12-20 16:47:00,46.8,44.3,30.03,South,188,7.0,10.0,91,0.00,,,0.00,Wunderground v.1.15,2013-12-20 21:47:00,
2013-12-20 16:53:00,46.6,44.1,30.04,South,171,6.0,8.0,91,0.00,,,0.00,Wunderground v.1.15,2013-12-20 21:53:00,
2013-12-20 16:58:00,46.6,44.4,30.04,SSW,196,7.0,12.0,92,0.00,,,0.00,Wunderground v.1.15,2013-12-20 21:58:00,
2013-12-20 17:04:00,46.7,44.5,30.04,SSE,164,8.0,10.0,92,0.00,,,0.00,Wunderground v.1.15,2013-12-20 22:04:00,
2013-12-20 17:10:00,46.5,44.3,30.04,South,190,7.0,7.0,92,0.00,,,0.00,Wunderground v.1.15,2013-12-20 22:10:00,
2013-12-20 17:15:00,46.4,44.2,30.04,SSW,209,6.0,7.0,92,0.00,,,0.00,Wunderground v.1.15,2013-12-20 22:15:00,
2013-12-20 17:21:00,46.4,44.2,30.04,South,176,6.0,8.0,92,0.00,,,0.00,Wunderground v.1.15,2013-12-20 22:21:00,
2013-12-20 17:26:00,46.5,44.6,30.04,SSE,167,7.0,8.0,93,0.00,,,0.00,Wunderground v.1.15,2013-12-20 22:26:00,
2013-12-20 17:32:00,46.9,45.0,30.04,South,180,8.0,11.0,93,0.00,,,0.00,Wunderground v.1.15,2013-12-20 22:32:00,
2013-12-20 17:37:00,47.0,45.1,30.04,South,187,8.0,11.0,93,0.00,,,0.00,Wunderground v.1.15,2013-12-20 22:37:00,
2013-12-20 17:43:00,47.1,45.2,30.05,South,189,7.0,13.0,93,0.00,,,0.00,Wunderground v.1.15,2013-12-20 22:43:00,
2013-12-20 17:48:00,47.3,45.4,30.05,SSE,167,8.0,13.0,93,0.00,,,0.00,Wunderground v.1.15,2013-12-20 22:48:00,
2013-12-20 17:54:00,47.5,45.6,30.04,SSE,165,8.0,11.0,93,0.00,,,0.00,Wunderground v.1.15,2013-12-20 22:54:00,
2013-12-20 18:00:00,47.5,45.6,30.04,SSW,203,8.0,10.0,93,0.00,,,0.00,Wunderground v.1.15,2013-12-20 23:00:00,
2013-12-20 18:05:00,47.4,45.2,30.04,SSE,165,9.0,12.0,92,0.00,,,0.00,Wunderground v.1.15,2013-12-20 23:05:00,
2013-12-20 18:11:00,47.7,45.8,30.04,South,183,10.0,10.0,93,0.00,,,0.00,Wunderground v.1.15,2013-12-20 23:11:00,
2013-12-20 18:16:00,47.9,46.0,30.04,South,185,9.0,13.0,93,0.00,,,0.00,Wunderground v.1.15,2013-12-20 23:16:00,
2013-12-20 18:22:00,47.7,45.5,30.04,SSW,194,10.0,11.0,92,0.00,,,0.00,Wunderground v.1.15,2013-12-20 23:22:00,
2013-12-20 18:28:00,47.7,45.5,30.04,SSW,200,9.0,11.0,92,0.00,,,0.00,Wunderground v.1.15,2013-12-20 23:28:00,
2013-12-20 18:33:00,47.8,45.9,30.04,South,171,9.0,14.0,93,0.00,,,0.00,Wunderground v.1.15,2013-12-20 23:33:00,
2013-12-20 18:38:00,47.9,45.7,30.04,South,179,9.0,14.0,92,0.00,,,0.00,Wunderground v.1.15,2013-12-20 23:38:00,
2013-12-20 18:44:00,47.8,45.6,30.03,SSE,163,9.0,12.0,92,0.00,,,0.00,Wunderground v.1.15,2013-12-20 23:44:00,
2013-12-20 18:50:00,47.4,45.2,30.03,South,174,9.0,9.0,92,0.00,,,0.00,Wunderground v.1.15,2013-12-20 23:50:00,
2013-12-20 18:55:00,47.4,45.5,30.03,SSW,195,9.0,10.0,93,0.00,,,0.00,Wunderground v.1.15,2013-12-20 23:55:00,
2013-12-20 19:01:00,47.4,45.5,30.03,South,172,9.0,11.0,93,0.00,,,0.00,Wunderground v.1.15,2013-12-21 00:01:00,
2013-12-20 19:07:00,47.4,45.5,30.03,South,169,9.0,14.0,93,0.00,,,0.00,Wunderground v.1.15,2013-12-21 00:07:00,
2013-12-20 19:12:00,47.4,45.5,30.04,SSE,162,9.0,9.0,93,0.00,,,0.00,Wunderground v.1.15,2013-12-21 00:12:00,
2013-12-20 19:18:00,47.6,46.0,30.03,South,174,8.0,14.0,94,0.00,,,0.00,Wunderground v.1.15,2013-12-21 00:18:00,
2013-12-20 19:23:00,47.8,46.2,30.03,SSW,192,9.0,14.0,94,0.00,,,0.00,Wunderground v.1.15,2013-12-21 00:23:00,
2013-12-20 19:29:00,47.6,45.7,30.03,South,179,10.0,14.0,93,0.00,,,0.00,Wunderground v.1.15,2013-12-21 00:29:00,
2013-12-20 19:34:00,47.3,45.4,30.03,South,186,9.0,10.0,93,0.00,,,0.00,Wunderground v.1.15,2013-12-21 00:34:00,
2013-12-20 19:40:00,47.1,45.2,30.02,ESE,115,8.0,11.0,93,0.00,,,0.00,Wunderground v.1.15,2013-12-21 00:40:00,
2013-12-20 19:45:00,47.0,45.1,30.03,SW,219,9.0,14.0,93,0.00,,,0.00,Wunderground v.1.15,2013-12-21 00:45:00,
2013-12-20 19:51:00,47.3,45.7,30.03,South,169,9.0,9.0,94,0.00,,,0.00,Wunderground v.1.15,2013-12-21 00:51:00,
2013-12-20 19:56:00,47.7,46.1,30.03,SSW,201,9.0,12.0,94,0.00,,,0.00,Wunderground v.1.15,2013-12-21 00:56:00,
2013-12-20 20:01:00,48.0,46.4,30.04,South,184,9.0,15.0,94,0.00,,,0.00,Wunderground v.1.15,2013-12-21 01:01:00,
2013-12-20 20:07:00,47.9,46.0,30.04,SSW,203,9.0,15.0,93,0.00,,,0.00,Wunderground v.1.15,2013-12-21 01:07:00,
2013-12-20 20:12:00,47.9,46.0,30.04,SSW,205,8.0,8.0,93,0.00,,,0.00,Wunderground v.1.15,2013-12-21 01:12:00,
2013-12-20 20:18:00,48.1,46.5,30.04,SSW,205,9.0,14.0,94,0.00,,,0.00,Wunderground v.1.15,2013-12-21 01:18:00,
2013-12-20 20:23:00,48.2,46.6,30.04,SSW,195,9.0,13.0,94,0.00,,,0.00,Wunderground v.1.15,2013-12-21 01:23:00,
2013-12-20 20:29:00,48.5,46.9,30.04,SSW,200,9.0,17.0,94,0.00,,,0.00,Wunderground v.1.15,2013-12-21 01:29:00,
2013-12-20 20:34:00,48.8,47.2,30.04,SSW,202,9.0,10.0,94,0.00,,,0.00,Wunderground v.1.15,2013-12-21 01:34:00,
2013-12-20 20:40:00,49.1,47.4,30.04,South,185,10.0,18.0,94,0.00,,,0.00,Wunderground v.1.15,2013-12-21 01:40:00,
2013-12-20 20:45:00,49.2,47.3,30.04,South,190,10.0,18.0,93,0.00,,,0.00,Wunderground v.1.15,2013-12-21 01:45:00,
2013-12-20 20:51:00,49.4,47.5,30.04,SSW,200,10.0,11.0,93,0.00,,,0.00,Wunderground v.1.15,2013-12-21 01:51:00,
2013-12-20 20:57:00,49.6,47.7,30.04,SSW,205,11.0,20.0,93,0.00,,,0.00,Wunderground v.1.15,2013-12-21 01:57:00,
2013-12-20 21:03:00,49.6,47.4,30.04,South,183,10.0,11.0,92,0.00,,,0.00,Wunderground v.1.15,2013-12-21 02:03:00,
2013-12-20 21:09:00,49.5,47.3,30.03,SSW,203,10.0,16.0,92,0.00,,,0.00,Wunderground v.1.15,2013-12-21 02:09:00,
2013-12-20 21:14:00,49.3,47.1,30.03,SSW,197,9.0,12.0,92,0.00,,,0.00,Wunderground v.1.15,2013-12-21 02:14:00,
2013-12-20 21:20:00,48.8,46.6,30.03,SSW,195,7.0,7.0,92,0.00,,,0.00,Wunderground v.1.15,2013-12-21 02:20:00,
2013-12-20 21:25:00,48.4,46.2,30.03,SSW,196,6.0,8.0,92,0.00,,,0.00,Wunderground v.1.15,2013-12-21 02:25:00,
2013-12-20 21:31:00,48.1,45.9,30.03,South,180,6.0,9.0,92,0.00,,,0.00,Wunderground v.1.15,2013-12-21 02:31:00,
2013-12-20 21:37:00,47.7,45.5,30.03,South,181,7.0,9.0,92,0.00,,,0.00,Wunderground v.1.15,2013-12-21 02:37:00,
2013-12-20 21:43:00,47.6,45.7,30.03,SSE,159,6.0,8.0,93,0.00,,,0.00,Wunderground v.1.15,2013-12-21 02:43:00,
2013-12-20 21:49:00,47.6,45.7,30.03,SSE,166,6.0,9.0,93,0.00,,,0.00,Wunderground v.1.15,2013-12-21 02:49:00,
2013-12-20 21:54:00,47.9,46.3,30.03,South,185,7.0,11.0,94,0.00,,,0.00,Wunderground v.1.15,2013-12-21 02:54:00,
2013-12-20 22:00:00,48.2,46.6,30.02,South,191,9.0,9.0,94,0.00,,,0.00,Wunderground v.1.15,2013-12-21 03:00:00,
2013-12-20 22:05:00,48.4,46.8,30.02,SSW,206,10.0,15.0,94,0.00,,,0.00,Wunderground v.1.15,2013-12-21 03:05:00,
2013-12-20 22:11:00,48.5,46.6,30.02,SW,217,10.0,12.0,93,0.00,,,0.00,Wunderground v.1.15,2013-12-21 03:11:00,
2013-12-20 22:17:00,48.6,46.7,30.02,SSW,209,10.0,15.0,93,0.00,,,0.00,Wunderground v.1.15,2013-12-21 03:17:00,
2013-12-20 22:23:00,48.7,46.8,30.03,SSW,209,11.0,13.0,93,0.00,,,0.00,Wunderground v.1.15,2013-12-21 03:23:00,
2013-12-20 22:29:00,48.5,46.6,30.03,SSW,196,10.0,16.0,93,0.00,,,0.00,Wunderground v.1.15,2013-12-21 03:29:00,
2013-12-20 22:34:00,48.4,46.5,30.04,SW,215,11.0,13.0,93,0.00,,,0.00,Wunderground v.1.15,2013-12-21 03:34:00,
2013-12-20 22:40:00,48.4,46.5,30.03,SSE,157,11.0,11.0,93,0.00,,,0.00,Wunderground v.1.15,2013-12-21 03:40:00,
2013-12-20 22:45:00,48.4,46.5,30.03,South,178,10.0,11.0,93,0.00,,,0.00,Wunderground v.1.15,2013-12-21 03:45:00,
2013-12-20 22:51:00,48.5,46.9,30.02,South,169,9.0,9.0,94,0.00,,,0.00,Wunderground v.1.15,2013-12-21 03:51:00,
2013-12-20 22:57:00,48.4,46.5,30.03,SSW,204,7.0,11.0,93,0.00,,,0.00,Wunderground v.1.15,2013-12-21 03:57:00,
2013-12-20 23:03:00,48.5,46.9,30.03,SSW,198,8.0,10.0,94,0.00,,,0.00,Wunderground v.1.15,2013-12-21 04:03:00,
2013-12-20 23:08:00,48.6,47.0,30.02,SSW,202,9.0,11.0,94,0.00,,,0.00,Wunderground v.1.15,2013-12-21 04:08:00,
2013-12-20 23:14:00,48.5,46.6,30.03,SSE,168,9.0,12.0,93,0.00,,,0.00,Wunderground v.1.15,2013-12-21 04:14:00,
2013-12-20 23:20:00,48.5,46.9,30.03,SSE,167,8.0,8.0,94,0.00,,,0.00,Wunderground v.1.15,2013-12-21 04:20:00,
2013-12-20 23:25:00,48.5,46.6,30.03,South,174,7.0,10.0,93,0.00,,,0.00,Wunderground v.1.15,2013-12-21 04:25:00,
2013-12-20 23:31:00,48.4,46.8,30.03,SSE,168,7.0,9.0,94,0.00,,,0.00,Wunderground v.1.15,2013-12-21 04:31:00,
2013-12-20 23:36:00,48.3,46.7,30.03,South,182,7.0,9.0,94,0.00,,,0.00,Wunderground v.1.15,2013-12-21 04:36:00,
2013-12-20 23:42:00,48.2,46.6,30.02,South,169,6.0,8.0,94,0.00,,,0.00,Wunderground v.1.15,2013-12-21 04:42:00,
2013-12-20 23:47:00,48.2,46.3,30.03,SSE,165,6.0,8.0,93,0.00,,,0.00,Wunderground v.1.15,2013-12-21 04:47:00,
2013-12-20 23:53:00,48.2,46.6,30.03,South,186,5.0,7.0,94,0.00,,,0.00,Wunderground v.1.15,2013-12-21 04:53:00,
2013-12-20 23:58:00,48.3,46.7,30.02,SSE,163,6.0,10.0,94,0.00,,,0.00,Wunderground v.1.15,2013-12-21 04:58:00,